Weather History for Gallup, NM

Change the Weather History Date:

Thursday, February 7, 2013

  Actual Average Record
Temperature  
Mean Temperature 40 °F -  
Max Temperature 55 °F 44 °F 61 °F (2009)
Min Temperature 25 °F 14 °F -19 °F (1989)
Degree Days  
Heating Degree Days 25    
Moisture  
Dew Point 18 °F    
Average Humidity 52    
Maximum Humidity 78    
Minimum Humidity 16    
Precipitation  
Precipitation 0.00 in - - ()
Sea Level Pressure  
Sea Level Pressure 30.07 in    
Wind  
Wind Speed 1 mph (NNE)    
Max Wind Speed 6 mph    
Max Gust Speed -    
Visibility 10 miles    
Events      
Averages and records for this station are not official NWS values.
T = Trace of Precipitation, MM = Missing Value Source: NWS Daily Summary

Daily Weather History Graph

Daily Weather History Graph

Search for Another Location

Airport:

Trip Planner

Search our weather history database for the weather conditions in past years. The results will help you decide how hot, cold, wet, or windy it might be!

Date:

Astronomy

Feb. 07, 2013 Rise Set
Actual Time 7:09 AM MST 5:49 PM MST
Civil Twilight 6:43 AM MST 6:16 PM MST
Nautical Twilight 6:12 AM MST 6:46 PM MST
Astronomical Twilight 5:43 AM MST 7:15 PM MST
Moon 4:48 AM MST (2/7) 3:20 PM MST (2/7)
Length of Visible Light 11h 32m
Length of Day
10h 40m
Waning Crescent, 8% of the Moon is Illuminated
Feb 7
Waning Crescent
Feb 10
New
Feb 17
First Quarter
Feb 25
Full
Mar 4
Last Quarter

Hourly Weather History & Observations

Time (MST) Temp. Windchill Dew Point Humidity Pressure Visibility Wind Dir Wind Speed Gust Speed Precip Events Conditions
12:53 AM 33.1 °F - 25.0 °F 72% 29.96 in 10.0 mi Calm Calm - N/A   Clear
1:53 AM 30.9 °F - 23.0 °F 72% 29.98 in 10.0 mi Calm Calm - N/A   Clear
2:53 AM 27.0 °F 21.6 °F 19.9 °F 75% 30.01 in 10.0 mi NE 4.6 mph - N/A   Clear
3:53 AM 27.0 °F - 19.9 °F 75% 30.04 in 10.0 mi Calm Calm - N/A   Clear
4:53 AM 26.1 °F 21.9 °F 19.0 °F 75% 30.05 in 10.0 mi NE 3.5 mph - N/A   Clear
5:53 AM 27.0 °F - 21.0 °F 78% 30.09 in 10.0 mi Calm Calm - N/A   Clear
6:53 AM 25.0 °F - 18.0 °F 75% 30.14 in 10.0 mi Calm Calm - N/A   Clear
7:53 AM 26.1 °F 21.9 °F 19.9 °F 78% 30.22 in 10.0 mi ENE 3.5 mph - N/A   Clear
8:53 AM 35.1 °F - 26.1 °F 70% 30.19 in 10.0 mi Calm Calm - N/A   Clear
9:53 AM 42.1 °F - 28.0 °F 58% 30.14 in 10.0 mi Calm Calm - N/A   Clear
10:53 AM 46.9 °F - 24.1 °F 41% 30.11 in 10.0 mi Calm Calm - N/A   Clear
11:53 AM 48.9 °F - 19.9 °F 32% 30.10 in 10.0 mi West 5.8 mph - N/A   Clear
12:53 PM 51.1 °F - 17.1 °F 26% 30.05 in 10.0 mi WSW 5.8 mph - N/A   Clear
1:53 PM 52.0 °F - 15.1 °F 23% 30.03 in 10.0 mi Variable 4.6 mph - N/A   Clear
2:53 PM 54.0 °F - 12.9 °F 20% 30.02 in 10.0 mi NNW 3.5 mph - N/A   Clear
3:53 PM 55.0 °F - 9.0 °F 16% 30.01 in 9.0 mi Calm Calm - N/A   Clear
4:53 PM 54.0 °F - 10.0 °F 17% 30.02 in 10.0 mi Calm Calm - N/A   Clear
5:53 PM 46.0 °F - 17.1 °F 31% 30.06 in 10.0 mi Calm Calm - N/A   Clear
6:53 PM 39.0 °F - 15.1 °F 38% 30.14 in 10.0 mi Calm Calm - N/A   Clear
7:53 PM 35.1 °F 31.0 °F 14.0 °F 42% 30.16 in 10.0 mi East 4.6 mph - N/A   Clear
8:53 PM 32.0 °F - 18.0 °F 56% 30.12 in 10.0 mi Calm Calm - N/A   Clear
9:53 PM 32.0 °F - 17.1 °F 54% 30.07 in 10.0 mi Calm Calm - N/A   Mostly Cloudy
10:53 PM 30.0 °F - 17.1 °F 59% 30.02 in 10.0 mi Calm Calm - N/A   Scattered Clouds
11:53 PM 28.9 °F - 17.1 °F 61% 30.01 in 6.0 mi Calm Calm - N/A   Haze